Погода в Зилаире

Погода в Зилаире : погода сейчас, прогноз погоды и архив. Всё, что Вы хотите узнать о погоде в Зилаире!

Поиск расширенной информации на нашем сайте:

Другие новости

Новости СМИ2

Главная страница сайта

Новости сайта

02.10.2013

Напоминаем, что на нашем новом сайте вы можете получить высокодетализированные прогнозы погоды по пунктам России, СНГ и мира (включающие важные для авиации метеовеличины, такие как направление и скорость ветра, видимость, явления погоды, количество и форма облачности, нижняя и верхняя граница облачности), а также ознакомиться с разнообразными материалами по авиационной метеорологии и подборкой полезных ссылок на эту тему.

Сайт Метеоцентр.Азия посвящён разработке технологий оптимизации авиаметеорологического обслуживания, включая проектирование и перспективное создание нескольких автоматизированных авиаметеорологических систем:
- система выпуска высокодетальных прогностических карт явлений погоды для нижнего воздушного пространства по России и ближнему зарубежью;
- система верификации прогнозов TAF (выпускаемых синоптиками официальных АМСГ РФ и ближнего зарубежья) и AUTOTAF (выпускаемых сайтом Метеоцентр.Азия) - выявление ошибок, онлайн-сопоставление с фактической погодой METAR, автоматическое внесение коррективов в прогнозы при резком отклонении фактической погоды от прогноза, подсчёт оправдываемости прогнозов по элементам и в целом;
- система обработки, анализа и отображения авиаметеорологической информации для применения провайдерами метеорологической информации.

Рекомендуем: Бизнес план салона штор.

Погода в Зилаире - сегодня

Время (UTC), дата Ветер
(°,м/с) 
Видим.   Явления Облачность Т
(°С)
Тd
(°С)
f(%) Тe
(°С)
Pmin
(гПа)
dP
(гПа)
Po
(мм)
O2
(г/м3)
Тmin Tmax R s Состояние
почвы
12 24.05.17 290 (З) 4{12}  20000 м    5/5 600 м 
[Cu hum]
+13.7 -3.6 30 +13  1016.2  0.2  717  275           
15 24.05.17 310 (СЗ) 3{10}  20000 м    3/3 600 м 
[Cu hum]
+14 -2.5 32 +14  1016.4  0.3  717  275    +14.6       
18 24.05.17 180 (Ю) 10 км    ясно 
+6.4 +0.7 67 +6  1019.5  1.3  718  282           
21 24.05.17 160 (Ю) 10 км    ясно 
+4.3 +0.5 76 +5  1020.9  0.9  719  285           
00 25.05.17 тихо ()   10 км    ясно 
+1.5 -0.2 88 +2  1022.1  0.5  719  288           
03 25.05.17 210 (ЮЗ) 20000 м    ясно 
+10.3 +1.9 56 +10  1020.9  0.8  719  279  +1.5        сухая 
06 25.05.17 260 (З) 10 км    3/0 средняя, верхняя 
[Ac lent|Ci sp]
+17.1 +0.7 33 +17  1019.8  0.3  720  273           
09 25.05.17 280 (З) 10 км    8/4 600 м верхняя 
[Cu med, cong|Ci sp]
+19.6 +1.5 30 +20  1019.1  -0.1  720  270           
12 25.05.17 280 (З) 10 км    4/4 600 м 
[Cu hum]
+20.6 +0.4 26 +21  1018.1  -0.8  719  269           
15 25.05.17 250 (З) 10 км    4/4 600 м 
[Cu med, cong]
+19.5 +0.5 28 +21  1018.1  -0.2  719  270    +21       
18 25.05.17 160 (Ю) 10 км    3/0 средняя 
[Ac lent]
+10.7 +3.7 62 +12  1020.9  0.9  720  278           
21 25.05.17 020 (С) 10 км    ясно 
+6.7 +3.5 80 +8  1021.5  -0.3  719  282           
00 26.05.17 010 (С) 10 км    3/0 средняя 
[Ac cast]
+4.2 +2.7 90 +5  1022  -0.1  719  285           
03 26.05.17 тихо ()   20000 м    5/0 средняя, верхняя 
[Ac cast|Ci fib]
+12 +4.9 62 +12  1020.5  0.3  719  277  +3.9        сухая 
06 26.05.17 140 (ЮВ) 20000 м    4/3 600 м верхняя 
[Cu med, cong|Ci fib]
+20.9 +3.2 31 +21  1017.8  -0.8  719  269           
09 26.05.17 160 (Ю) 20000 м    8/8 600 м 
[Cu med, cong]
+21.3 +2.6 29 +21  1015.9  -1.7  718  268           
12 26.05.17 160 (Ю) 2{10}  20000 м    10/10 600 м 
[Sc]
+19.9 +3.6 34 +21  1014.4  -1.7  716  268           
15 26.05.17 350 (С) 1{12}  10 км  в посл. час ливневой дождь  10/10 600 м кучево-дожд. 
[Cb calv]
+12.6 +9.8 83 +16  1015.3  -0.5  716  274    +21.8  0.4     
18 26.05.17 100 (В) 10 км  {ливн. осадки}  10/10 600 м 
[Sc]
+11.4 +8.1 80 +13  1014.4  -1.1  715  275           
21 26.05.17 060 (СВ) 10 км    10/10 600 м 
[Sc]
+10.5 +7.9 84 +12  1012.6  -1.9  714  275           
00 27.05.17 110 (В) 10 км    9/9 600 м 
[Sc]
+10.3 +7.9 85 +10  1010.2  -2.3  712  275           
03 27.05.17 100 (В) 10 км  слаб. ливневой дождь  10/10 600 м кучево-дожд. 
[Cb cap]
+10 +8.8 92 +12  1009.4  -0.8  711  275  +10      влажная 
06 27.05.17 290 (З) 20000 м  {ливн. осадки}  9/9 600 м 
[Cu med, cong]
+12.9 +8.9 77 +15  1007.6  -1.1  711  272           
09 27.05.17 340 (С) 20000 м    6/6 600 м кучево-дожд. 
[Cb calv]
+15.5 +8.7 64 +16  1005.6  -1.4  710  269           
12 27.05.17 340 (С) 10 км  в посл. час ливневой дождь  8/8 300 м кучево-дожд. 
[Cb calv]
+13.6 +11.2 85 +18  1005.7  -0.2  709  270           
Время (UTC), дата Ветер
(°,м/с) 
Видим.   Явления Облачность Т
(°С)
Тd
(°С)
f(%) Тe
(°С)
Pmin
(гПа)
dP
(гПа)
Po
(мм)
O2
(г/м3)
Тmin Tmax R s Состояние
почвы

Для получения пояснительной информации подведите курсор к названию столбца.

ПОГОДА в Зилаире - архив

Всё, что Вы хотите узнать о погоде в Зилаире - удобно и подробно!

Выберите нужную дату (начиная с 1 января 2015* года) и нажмите кнопку "Найти".
Будут отображены архивные сводки погоды по пункту Зилаир, начиная с указанной даты.


Отображать данные в формате CSV (для использования в таблицах Excel)


Внимание! Наш архив погоды предназначен исключительно для личного некоммерческого использования в познавательных целях. Если Вам необходимы официальные справки о состоянии погоды (для производственных, юридических, коммерческих и т.п. целей), обращайтесь в органы Росгидромета.

*Примечание: данная дата относится к архиву по метеостанциям СССР (Россия, СНГ, Балтия).
Архив по метеостанциям Зарубежной Европы и Азии (кроме Китая) хранится 10 дней, по другим регионам земного шара (Китай, Африка, Америка, Австралия, Океания) - 1 день.

Зилаир - район местоположения метеостанции


Название, широта, долгота, высота метеостанции:
Зилаир 52.2°ш. 57.4°д. 521 м над ур. моря [Российская Федерация]

Дополнительная информация

В oтличие oт бoльшинства пoгoдных сайтoв мы публикуем пoдрoбную метеoинфoрмацию в детальнoм прoфессиoнальнoм фoрмате.

Характеристики температуры и влажнoсти вoздуха измеряются на высoте 2 м в тени вдали oт зданий и деревьев.
Скoрoсть ветра измеряется на высoте 10 м (на урoвне рoста челoвека скoрoсть ветра ниже в 1.5-2 раза). Если метеoстанция нахoдится в гoрoде или в лесу, тo скoрoсть ветра занижена на 2-4 м/с пo сравнению с oткрытым местoм. Скoрoсть ветра над акватoриями крупных рек и oзёр, а также на вершинах хoлмoв на 2-5 м/с выше, чем в oбычных услoвиях.
Атмoсфернoе давление в разных тoчках местнoсти мoжет значительнo oтличаться oт давления на метеoстанции, в зависимoсти oт услoвий рельефа (при пoдъёме на 10 м давление пoнижается примернo на 1 мм рт.ст.).